YC2UTC-13 Weather Reports


time (UTC)temp
C
wind
direction
speed
KPH
gust
KPH
rain 1hr
cm
rain 24hr
cm
rain mn
cm
humidity
%
barometer
mb
20260502100358 31 0 0.0 0.0 0.00 0.00 0.00 62 988.6
20260502091229 35 0 0.0 0.0 0.00 0.00 0.00 57 988.1
20260502090720 35 0 0.0 0.0 0.00 0.00 0.00 57 988.1
20260502090212 35 0 0.0 0.0 0.00 0.00 0.00 56 987.9
20260502071413 41 0 0.0 0.0 0.00 0.00 0.00 48 988.1
20260502070903 42 0 0.0 0.0 0.00 0.00 0.00 47 988.1
20260502070355 42 0 0.0 0.0 0.00 0.00 0.00 48 988.2
20260502065846 42 0 0.0 0.0 0.00 0.00 0.00 49 988.3
20260502065338 41 0 0.0 0.0 0.00 0.00 0.00 49 988.5
20260502064831 41 0 0.0 0.0 0.00 0.00 0.00 49 988.6
20260502064321 42 0 0.0 0.0 0.00 0.00 0.00 48 988.7
20260502063811 42 0 0.0 0.0 0.00 0.00 0.00 47 988.8
20260502063301 42 0 0.0 0.0 0.00 0.00 0.00 46 988.8
20260502062751 42 0 0.0 0.0 0.00 0.00 0.00 47 988.9
20260502062242 43 0 0.0 0.0 0.00 0.00 0.00 46 989.0
20260502061734 44 0 0.0 0.0 0.00 0.00 0.00 46 989.1
20260502061226 46 0 0.0 0.0 0.00 0.00 0.00 48 989.2
20260502060719 45 0 0.0 0.0 0.00 0.00 0.00 48 989.2
20260502060209 45 0 0.0 0.0 0.00 0.00 0.00 47 989.3
20260502055700 44 0 0.0 0.0 0.00 0.00 0.00 50 989.5
20260502055152 44 0 0.0 0.0 0.00 0.00 0.00 49 989.6
20260502054643 45 0 0.0 0.0 0.00 0.00 0.00 47 989.7
20260502054135 45 0 0.0 0.0 0.00 0.00 0.00 52 989.7
20260502053627 44 0 0.0 0.0 0.00 0.00 0.00 54 989.8
20260502053117 42 0 0.0 0.0 0.00 0.00 0.00 56 989.8
20260502052607 42 0 0.0 0.0 0.00 0.00 0.00 56 989.9
20260502052059 42 0 0.0 0.0 0.00 0.00 0.00 55 990.1
20260502051545 42 0 0.0 0.0 0.00 0.00 0.00 55 990.2
20260502051037 43 0 0.0 0.0 0.00 0.00 0.00 55 990.2
20260502050525 44 0 0.0 0.0 0.00 0.00 0.00 52 990.3
20260502050017 45 0 0.0 0.0 0.00 0.00 0.00 53 990.4
20260502045507 46 0 0.0 0.0 0.00 0.00 0.00 52 990.4
20260502044959 46 0 0.0 0.0 0.00 0.00 0.00 52 990.4
20260502044448 45 0 0.0 0.0 0.00 0.00 0.00 54 990.5
20260502043938 43 0 0.0 0.0 0.00 0.00 0.00 54 990.5
20260502043429 41 0 0.0 0.0 0.00 0.00 0.00 57 990.6
20260502042917 39 0 0.0 0.0 0.00 0.00 0.00 60 990.7
20260502042409 39 0 0.0 0.0 0.00 0.00 0.00 60 990.7
20260502041900 39 0 0.0 0.0 0.00 0.00 0.00 61 990.7
20260502041352 40 0 0.0 0.0 0.00 0.00 0.00 61 990.8
20260502040842 42 0 0.0 0.0 0.00 0.00 0.00 60 990.9
20260502040332 43 0 0.0 0.0 0.00 0.00 0.00 58 991.0
20260502035821 45 0 0.0 0.0 0.00 0.00 0.00 56 991.1
20260502035311 43 0 0.0 0.0 0.00 0.00 0.00 57 991.2
20260502034802 43 0 0.0 0.0 0.00 0.00 0.00 61 991.3
20260502034255 42 0 0.0 0.0 0.00 0.00 0.00 58 991.4
20260502033747 40 0 0.0 0.0 0.00 0.00 0.00 64 991.5
20260502033237 40 0 0.0 0.0 0.00 0.00 0.00 61 991.6
20260502032730 41 0 0.0 0.0 0.00 0.00 0.00 63 991.7
20260502032221 40 0 0.0 0.0 0.00 0.00 0.00 64 991.7
20260502031714 40 0 0.0 0.0 0.00 0.00 0.00 63 991.8
20260502031203 41 0 0.0 0.0 0.00 0.00 0.00 63 991.8
20260502030654 41 0 0.0 0.0 0.00 0.00 0.00 63 991.9
20260502030146 40 0 0.0 0.0 0.00 0.00 0.00 66 991.9
20260502025638 41 0 0.0 0.0 0.00 0.00 0.00 62 991.9
20260502025127 41 0 0.0 0.0 0.00 0.00 0.00 60 991.9
20260502024619 41 0 0.0 0.0 0.00 0.00 0.00 61 991.8
20260502024109 41 0 0.0 0.0 0.00 0.00 0.00 61 991.9
20260502023602 42 0 0.0 0.0 0.00 0.00 0.00 66 991.9
20260502023052 42 0 0.0 0.0 0.00 0.00 0.00 66 991.9
20260502022542 41 0 0.0 0.0 0.00 0.00 0.00 67 991.9
20260502022032 41 0 0.0 0.0 0.00 0.00 0.00 68 992.0
20260502021524 41 0 0.0 0.0 0.00 0.00 0.00 67 992.0
20260502021013 41 0 0.0 0.0 0.00 0.00 0.00 66 992.0
20260502020504 41 0 0.0 0.0 0.00 0.00 0.00 67 992.0
20260502015955 41 0 0.0 0.0 0.00 0.00 0.00 68 992.1
20260502015447 41 0 0.0 0.0 0.00 0.00 0.00 69 992.1
20260502014938 40 0 0.0 0.0 0.00 0.00 0.00 70 992.1
20260502014427 40 0 0.0 0.0 0.00 0.00 0.00 70 992.1
20260502013917 39 0 0.0 0.0 0.00 0.00 0.00 71 992.1
20260502013406 38 0 0.0 0.0 0.00 0.00 0.00 71 992.0
20260502012857 38 0 0.0 0.0 0.00 0.00 0.00 72 991.9
20260502012347 37 0 0.0 0.0 0.00 0.00 0.00 75 991.8
20260502011838 36 0 0.0 0.0 0.00 0.00 0.00 76 991.8
20260502011329 35 0 0.0 0.0 0.00 0.00 0.00 76 991.8
20260502010820 34 0 0.0 0.0 0.00 0.00 0.00 77 991.8
20260502010311 33 0 0.0 0.0 0.00 0.00 0.00 78 991.8
20260502005801 32 0 0.0 0.0 0.00 0.00 0.00 81 991.7
20260502005253 30 0 0.0 0.0 0.00 0.00 0.00 84 991.6
20260502004742 28 0 0.0 0.0 0.00 0.00 0.00 84 991.6
20260502004234 28 0 0.0 0.0 0.00 0.00 0.00 83 991.6
20260502003726 27 0 0.0 0.0 0.00 0.00 0.00 83 991.6
20260502003216 27 0 0.0 0.0 0.00 0.00 0.00 83 991.5
20260502002707 27 0 0.0 0.0 0.00 0.00 0.00 83 991.5
20260502002155 27 0 0.0 0.0 0.00 0.00 0.00 83 991.6
20260502001646 27 0 0.0 0.0 0.00 0.00 0.00 83 991.6
20260502001138 27 0 0.0 0.0 0.00 0.00 0.00 83 991.6
20260502000629 26 0 0.0 0.0 0.00 0.00 0.00 83 991.4
20260502000122 26 0 0.0 0.0 0.00 0.00 0.00 83 991.3
20260501235613 26 0 0.0 0.0 0.00 0.00 0.00 83 991.3
20260501235103 26 0 0.0 0.0 0.00 0.00 0.00 83 991.2
20260501234554 26 0 0.0 0.0 0.00 0.00 0.00 83 991.2
20260501234046 26 0 0.0 0.0 0.00 0.00 0.00 83 991.1